Wind_Speed
33 30 35 35 35 31 29 26 24 24 22 21 19 17 16 15 16 17 17 15 15 14 15 13 16 18 18 17 15 13 11 14 15 12 11 13 13 12 13 13 14 13 10
33 34 31 34 34 34 32 31 26 27 25 24 23 23 20 18 16 17 18 18 17 17 16 17 17 16 17 16 17 15 15 14 14 14 12 14 13 11 12 12 12 12 12
39 35 32 30 35 36 36 31 29 26 24 23 23 23 20 18 18 17 17 15 16 17 16 17 18 17 17 16 17 16 15 16 16 16 16 16 14 13 11 10 9 7 7
42 38 34 31 33 35 36 33 32 28 26 23 19 18 19 17 15 14 15 14 14 14 14 14 14 15 17 16 15 14 16 18 18 18 16 16 16 13 12 11 9 9 9
41 36 34 31 32 31 30 31 29 27 28 24 18 16 18 17 16 14 13 13 13 11 10 11 13 14 13 13 14 15 17 17 17 17 16 17 13 12 12 11 10 9 8
37 42 38 32 36 34 31 30 30 30 27 22 19 20 19 19 16 14 13 14 13 12 12 13 15 16 16 16 17 17 16 16 16 15 14 12 11 11 10 10 10 10 10
35 42 27 31 31 33 35 33 33 28 28 24 22 21 18 19 18 16 15 13 14 15 17 16 16 18 18 16 14 13 14 13 13 12 11 11 10 11 11 10 10 12 13
35 42 43 37 38 36 39 36 33 30 27 25 24 23 21 22 20 16 16 14 16 18 18 20 18 16 16 15 13 11 9 9 9 10 11 11 9 9 9 9 9 10 13
24 29 34 35 37 42 42 38 35 32 29 26 27 27 24 22 20 16 17 17 18 19 19 17 15 15 15 13 10 10 11 10 9 10 11 9 9 9 10 11 10 11 11
21 34 44 40 27 39 41 39 37 33 30 29 27 24 19 17 13 14 14 17 21 20 15 11 8 5 2 1 4 7 11 13 13 10 5 5 7 8 9 10 11 10 11
16 24 36 34 28 26 33 31 31 27 22 23 18 15 12 11 11 10 7 9 10 8 9 8 7 4 2 0 3 4 4 4 4 6 6 7 11 8 10 12 10 8 10
17 24 34 34 25 22 22 18 22 18 17 16 16 17 16 12 14 14 11 9 10 10 7 5 3 4 4 5 5 5 6 7 8 9 10 12 13 12 12 14 13 13 15
14 24 25 27 27 27 25 22 18 14 14 16 16 19 24 27 21 19 18 12 12 8 6 3 1 2 3 4 5 6 7 8 7 8 9 10 9 10 9 10 13 15 18
17 17 23 27 24 21 18 19 19 18 18 19 19 20 21 18 17 14 10 7 4 2 1 2 3 3 4 4 4 5 7 9 11 10 8 8 7 7 10 14 16 16 17
19 19 17 18 12 20 22 22 19 19 17 17 18 19 16 12 11 10 7 4 4 4 4 3 3 3 4 5 7 8 8 10 11 12 10 9 10 11 13 14 14 15 14
20 20 16 12 17 16 13 15 15 15 14 13 13 10 10 9 8 8 7 6 5 5 6 7 7 7 8 9 9 8 9 10 10 11 11 11 11 12 15 16 15 15 14
19 20 19 18 18 17 17 15 19 20 18 17 15 14 13 11 10 8 7 6 4 3 4 5 7 8 9 9 10 11 12 12 10 11 12 12 13 16 16 16 16 16 15
25 25 26 25 24 23 22 20 18 17 17 18 17 16 15 12 9 7 7 8 9 9 8 8 9 10 11 13 13 13 14 13 10 9 10 13 14 15 15 16 16 15 13
17 18 18 19 19 19 21 20 18 17 17 17 16 15 13 11 12 11 10 9 9 9 9 8 6 6 8 10 11 12 15 16 14 12 13 15 15 13 13 12 14 15 11
16 14 14 15 16 14 13 14 14 12 12 11 12 12 12 13 11 7 6 6 5 3 2 4 5 6 7 8 8 12 14 12 14 15 13 14 11 11 13 15 16 13 7
12 13 8 10 10 12 14 12 12 10 11 10 12 11 10 7 4 1 3 2 1 1 3 5 7 10 10 11 12 13 14 15 15 16 16 20 19 18 19 13 15 11 9
13 12 10 10 11 10 11 11 10 12 14 15 12 10 7 3 4 1 0 1 2 3 4 6 7 10 14 17 20 16 14 11 11 13 18 19 18 17 10 10 9 8 9
13 9 6 6 7 11 12 10 13 13 14 12 12 10 8 6 5 5 2 1 2 6 9 12 13 15 17 16 14 13 11 10 11 14 16 18 16 9 9 8 10 11 8
12 11 9 9 14 10 12 13 11 10 8 8 8 8 7 7 5 5 5 7 9 12 13 14 15 13 14 12 13 13 13 10 9 11 13 13 12 15 13 15 17 15 17
13 13 14 11 12 13 13 11 8 6 4 4 6 7 6 7 8 10 11 13 12 7 9 12 14 14 14 15 15 15 14 9 7 8 11 12 12 10 14 17 13 12 4
14 14 12 13 13 11 10 8 6 6 7 5 3 2 3 5 5 6 7 7 6 8 10 12 13 15 16 15 17 20 17 7 4 6 9 12 15 15 15 17 5 7 5
Wind_Direction
213 212 214 217 218 221 219 213 210 218 222 227 228 226 233 241 251 245 242 242 249 252 244 250 258 264 270 267 267 273 273 272 274 275 272 274 290 288 288 291 287 289 293
216 216 215 218 219 219 218 219 217 217 222 229 236 241 250 253 248 248 248 250 254 250 253 258 259 256 268 271 266 266 275 284 289 286 272 273 284 296 303 302 303 286 282
219 219 221 220 219 219 216 219 221 223 225 233 235 239 239 241 241 246 243 244 242 249 254 256 255 259 268 269 270 275 276 281 284 287 286 283 285 291 292 296 310 324 290
227 222 222 225 217 216 217 222 226 229 227 230 232 236 234 234 233 232 237 238 240 241 248 257 260 262 269 266 263 270 272 277 280 281 283 286 289 288 282 291 294 284 290
224 223 226 232 222 216 216 216 215 221 223 229 228 231 223 219 222 225 228 231 236 241 245 264 266 271 273 281 282 281 278 273 277 279 278 283 282 275 280 282 288 283 287
222 219 215 221 226 225 218 213 213 218 221 226 227 223 221 223 225 228 231 232 241 251 260 270 268 268 273 275 278 280 280 274 272 271 272 270 278 280 278 276 270 269 274
217 208 240 230 233 232 227 224 219 218 216 220 226 227 230 235 236 236 233 229 250 261 272 268 268 272 272 271 267 271 274 273 267 259 257 263 269 277 280 277 261 257 262
239 234 241 229 262 232 228 221 222 217 224 226 220 225 235 241 241 244 246 246 257 265 269 275 273 265 264 266 264 255 256 255 257 260 261 263 269 275 280 278 280 278 274
234 229 217 226 253 228 221 219 217 220 215 216 223 226 233 241 241 239 243 256 262 265 264 261 258 252 247 243 241 245 255 264 270 278 269 261 283 284 288 296 295 284 282
221 221 207 221 267 223 216 214 210 211 212 219 224 221 224 227 230 242 256 262 261 253 240 239 241 218 184 216 262 256 253 261 269 272 295 268 278 308 310 310 306 311 288
228 212 218 218 212 194 219 210 213 210 205 201 202 213 222 246 248 249 198 179 172 175 159 153 154 154 166 211 321 325 316 306 301 272 259 267 279 295 310 318 326 323 329
133 180 191 200 206 194 192 163 171 173 185 193 193 184 168 160 144 142 154 147 149 142 163 180 205 237 268 282 289 292 294 292 283 281 278 278 278 287 281 280 286 302 320
71 92 94 103 115 118 122 129 130 130 141 158 152 149 137 134 127 128 129 127 133 143 153 150 79 31 354 2 18 10 10 3 341 319 308 306 307 288 276 275 286 297 306
92 105 108 107 104 108 113 119 124 135 137 137 135 129 132 129 130 127 134 130 103 83 4 42 62 56 48 32 30 38 28 21 16 353 328 317 311 304 301 302 306 306 305
117 121 116 114 108 118 122 124 126 124 132 129 124 125 132 132 137 148 147 128 88 73 60 50 46 50 39 22 19 13 354 351 350 356 359 342 328 322 319 315 310 313 316
143 141 140 148 135 125 131 133 135 140 142 137 136 129 140 142 129 114 102 95 89 89 90 93 82 67 55 41 27 30 22 6 348 341 341 337 331 326 322 317 313 310 311
140 136 136 132 125 124 126 129 129 124 122 120 117 116 111 105 103 99 90 83 84 78 68 57 40 34 32 20 3 354 349 344 337 337 336 330 324 327 323 316 304 303 307
113 115 117 119 118 115 111 111 111 111 115 115 108 102 95 83 83 91 93 84 80 76 72 63 52 42 34 18 6 6 8 1 344 317 309 314 317 321 320 314 316 316 306
118 119 122 119 113 113 109 109 110 109 109 112 105 92 72 77 89 88 91 91 79 69 63 48 35 22 16 11 0 353 356 356 357 342 331 331 331 321 310 307 311 310 301
113 116 125 129 127 124 118 122 118 117 116 118 115 94 81 94 95 93 94 84 60 58 24 2 350 340 332 328 335 329 327 334 333 318 307 309 308 321 322 316 320 319 302
142 138 146 169 155 143 137 137 139 137 132 134 132 114 114 82 30 52 147 155 138 52 15 357 334 323 317 315 314 310 311 316 320 317 308 317 302 299 296 287 305 308 300
135 157 144 137 140 150 149 149 146 141 135 131 135 141 126 112 133 132 274 193 261 281 296 304 307 310 313 317 320 317 308 311 312 301 307 317 305 294 271 282 283 292 295
155 167 199 185 177 179 169 157 160 154 148 148 151 158 172 177 175 177 180 194 283 304 312 312 313 315 318 324 330 321 321 308 311 322 329 318 296 270 274 255 272 283 298
167 172 173 180 170 160 157 156 157 151 153 153 161 166 171 184 204 233 268 292 302 307 310 314 322 334 342 345 345 348 339 317 312 321 324 309 285 271 260 274 279 275 312
171 171 178 186 180 162 163 169 174 184 214 252 260 253 248 257 270 282 292 303 311 316 320 323 323 331 337 336 338 339 336 325 322 321 311 285 288 267 272 277 284 307 235
163 172 186 185 181 189 207 215 232 266 288 262 229 249 269 278 292 303 318 325 322 325 327 331 331 338 340 335 337 339 339 311 292 293 290 290 286 285 290 298 295 169 108
Height
1535 1539 1543 1546 1549 1553 1556 1559 1561 1563 1564 1565 1566 1567 1568 1568 1568 1569 1569 1570 1571 1572 1573 1573 1574 1575 1576 1576 1574 1574 1573 1572 1572 1571 1570 1570 1569 1567 1565 1563 1561 1560 1557
1530 1535 1538 1542 1546 1548 1552 1555 1558 1560 1562 1563 1563 1564 1564 1564 1565 1565 1566 1566 1567 1568 1568 1569 1570 1571 1571 1571 1570 1570 1570 1569 1568 1567 1567 1566 1566 1564 1562 1560 1558 1556 1554
1525 1530 1534 1536 1540 1544 1547 1551 1555 1557 1558 1559 1560 1560 1561 1561 1561 1561 1561 1562 1562 1564 1565 1566 1567 1567 1567 1567 1566 1565 1565 1564 1564 1563 1563 1562 1562 1560 1558 1556 1555 1552 1551
1520 1524 1527 1531 1533 1537 1542 1546 1549 1553 1555 1556 1557 1556 1557 1557 1558 1557 1558 1560 1562 1561 1562 1562 1562 1562 1562 1562 1561 1561 1560 1560 1560 1559 1559 1558 1557 1556 1554 1553 1551 1550 1548
1514 1519 1523 1528 1531 1534 1537 1541 1544 1548 1550 1551 1552 1553 1553 1554 1554 1555 1556 1557 1558 1558 1558 1558 1558 1557 1557 1557 1556 1556 1555 1555 1554 1554 1554 1553 1553 1552 1551 1549 1548 1547 1546
1504 1507 1511 1518 1525 1530 1532 1535 1538 1541 1545 1548 1548 1549 1549 1550 1551 1552 1552 1553 1553 1553 1554 1554 1554 1554 1554 1554 1552 1551 1550 1550 1549 1549 1549 1549 1549 1548 1547 1546 1545 1544 1544
1486 1492 1500 1512 1517 1520 1527 1531 1532 1534 1538 1541 1543 1544 1545 1546 1547 1548 1549 1550 1550 1550 1550 1550 1550 1549 1549 1549 1549 1548 1547 1547 1546 1547 1547 1547 1546 1545 1544 1543 1541 1540 1539
1485 1490 1493 1496 1508 1513 1519 1523 1527 1528 1532 1536 1537 1538 1539 1540 1542 1544 1545 1546 1546 1546 1546 1546 1546 1545 1545 1545 1545 1545 1545 1544 1544 1544 1545 1544 1543 1541 1541 1540 1539 1538 1538
1474 1481 1486 1500 1498 1504 1510 1515 1518 1522 1524 1529 1532 1532 1533 1535 1536 1537 1540 1542 1542 1542 1542 1541 1541 1541 1540 1540 1541 1541 1541 1541 1541 1542 1542 1541 1540 1539 1539 1538 1537 1536 1535
1467 1475 1484 1490 1489 1498 1504 1508 1511 1514 1517 1520 1525 1527 1527 1529 1530 1533 1535 1536 1536 1537 1537 1536 1537 1537 1537 1538 1537 1537 1537 1537 1538 1538 1538 1539 1538 1538 1539 1536 1537 1534 1533
1465 1468 1475 1480 1482 1481 1499 1503 1508 1512 1514 1514 1519 1521 1521 1524 1526 1528 1530 1531 1533 1534 1536 1537 1537 1538 1538 1537 1536 1535 1534 1535 1535 1535 1535 1536 1537 1537 1537 1537 1536 1535 1535
1462 1466 1469 1475 1483 1486 1492 1493 1489 1501 1510 1511 1510 1514 1516 1520 1523 1526 1530 1531 1533 1533 1536 1537 1537 1537 1536 1536 1535 1534 1533 1533 1533 1533 1534 1534 1532 1533 1534 1533 1534 1534 1533
1478 1474 1471 1474 1481 1483 1492 1498 1501 1506 1506 1510 1510 1514 1515 1521 1523 1528 1531 1534 1533 1534 1535 1536 1536 1536 1536 1535 1534 1534 1533 1533 1532 1530 1530 1530 1530 1531 1530 1532 1531 1529 1528
1487 1489 1490 1485 1488 1492 1498 1502 1506 1509 1514 1517 1520 1519 1522 1525 1526 1529 1532 1534 1535 1535 1537 1536 1536 1535 1535 1535 1535 1534 1534 1533 1531 1530 1531 1530 1531 1531 1531 1530 1529 1528 1526
1490 1493 1494 1492 1499 1500 1504 1506 1511 1512 1520 1521 1521 1522 1526 1529 1530 1532 1533 1534 1535 1535 1535 1537 1536 1535 1534 1533 1533 1532 1533 1533 1533 1531 1532 1532 1530 1529 1528 1528 1528 1526 1523
1494 1495 1499 1502 1504 1507 1510 1513 1514 1516 1519 1521 1523 1526 1528 1531 1532 1532 1531 1533 1535 1537 1537 1536 1535 1535 1533 1533 1532 1531 1532 1533 1532 1531 1530 1530 1529 1529 1528 1527 1525 1525 1523
1498 1500 1503 1506 1508 1511 1513 1518 1517 1519 1520 1523 1525 1527 1529 1531 1532 1533 1533 1535 1537 1538 1537 1536 1535 1535 1534 1534 1533 1531 1530 1531 1531 1529 1529 1528 1527 1527 1526 1524 1522 1520 1519
1505 1507 1508 1511 1513 1514 1516 1519 1521 1523 1524 1526 1528 1530 1530 1532 1533 1533 1534 1536 1538 1537 1536 1536 1536 1535 1535 1534 1533 1530 1529 1529 1528 1528 1527 1527 1525 1525 1524 1522 1521 1518 1517
1510 1513 1514 1515 1516 1519 1519 1520 1524 1525 1527 1529 1530 1532 1532 1533 1534 1535 1536 1538 1538 1538 1536 1536 1535 1535 1534 1534 1533 1531 1529 1528 1527 1527 1525 1523 1522 1521 1520 1518 1518 1517 1514
1515 1516 1519 1520 1519 1522 1521 1523 1525 1526 1528 1529 1531 1533 1535 1534 1536 1538 1538 1539 1537 1536 1536 1535 1534 1532 1531 1531 1529 1529 1527 1525 1524 1524 1523 1522 1520 1519 1519 1517 1514 1511 1510
1518 1520 1523 1525 1522 1524 1525 1527 1527 1528 1529 1531 1531 1534 1537 1538 1537 1536 1535 1534 1534 1535 1534 1534 1533 1530 1529 1528 1527 1526 1523 1522 1521 1520 1520 1518 1516 1516 1513 1512 1511 1511 1509
1516 1519 1522 1524 1524 1525 1526 1526 1526 1527 1529 1533 1532 1535 1535 1535 1535 1534 1533 1533 1533 1533 1533 1533 1531 1529 1527 1525 1523 1520 1519 1518 1517 1516 1515 1514 1512 1511 1508 1509 1510 1509 1508
1516 1518 1522 1522 1525 1525 1524 1526 1526 1528 1528 1531 1532 1532 1532 1534 1534 1534 1533 1532 1532 1532 1531 1530 1528 1527 1524 1521 1518 1515 1514 1513 1512 1511 1509 1510 1509 1508 1508 1507 1507 1505 1504
1514 1517 1521 1523 1523 1524 1525 1527 1528 1529 1529 1530 1531 1532 1532 1533 1533 1533 1532 1531 1529 1529 1527 1526 1525 1524 1521 1519 1516 1513 1510 1509 1508 1507 1507 1507 1507 1507 1507 1504 1504 1503 1502
1512 1514 1520 1522 1524 1523 1525 1528 1527 1529 1529 1529 1532 1531 1530 1530 1530 1529 1529 1528 1527 1526 1524 1522 1520 1520 1518 1515 1514 1511 1508 1505 1504 1505 1505 1505 1505 1504 1504 1503 1501 1501 1501
1511 1515 1519 1521 1520 1521 1525 1526 1526 1526 1528 1530 1531 1529 1528 1527 1527 1527 1527 1525 1524 1523 1521 1519 1517 1516 1515 1513 1510 1507 1504 1502 1502 1503 1504 1504 1503 1502 1501 1500 1498 1500 1499